Location: Carri�res
(48.9069°N, 2.1792°E)
Time: 13:48:29
(UTC+00:00)

USA 229 - Pass Details

Date: 17 January 2021
Orbit: 964 x 1248 km, 63.4° (Epoch: 23 February)

Event Time Altitude Azimuth Distance (km) Brightness Sun altitude
Rises 20:02:40 0° 317° (NW) 3,933 7.3 -35.1°
Reaches altitude 10° 20:05:17 10° 319° (NW) 3,012 6.6 -35.5°
Enters shadow 20:10:39 54° 329° (NNW) 1,395 4.3 -36.4°
